DLH31T EDXW-EDDH

Flight info

Callsign DLH31T
Flight time 0h 29m
Altitude 17000
Route OLDIP1B/32 OLDIP DCT BADOS DCT RENSU DCT BOGMU BOGMU3N
Aircraft A320/M-SDE3FGHIRWY/LB1

Departure

Time 2026-05-06 15:26
Airport Westerland Sylt Airport (EDXW)

Arrival

Time 2026-05-06 15:56
Airport Hamburg Helmut Schmidt Airport (EDDH)
Time Latitude Longitude Altitude Speed Heading
2026-05-06 14:58 54.91387 8.33118 40 ft 0 kts 270°
2026-05-06 15:16 54.91387 8.33122 40 ft 2 kts 269°
2026-05-06 15:16 54.91387 8.33151 40 ft 2 kts 270°
2026-05-06 15:17 54.91387 8.33179 40 ft 2 kts 268°
2026-05-06 15:17 54.91388 8.33208 39 ft 2 kts 251°
2026-05-06 15:17 54.91398 8.33229 35 ft 2 kts 205°
2026-05-06 15:17 54.91408 8.33236 40 ft 0 kts 179°
2026-05-06 15:20 54.91389 8.33237 40 ft 10 kts 178°
2026-05-06 15:20 54.91317 8.33224 40 ft 10 kts 202°
2026-05-06 15:20 54.91253 8.33180 40 ft 10 kts 189°
2026-05-06 15:20 54.91188 8.33179 39 ft 9 kts 180°
2026-05-06 15:21 54.91095 8.33179 39 ft 19 kts 180°
2026-05-06 15:21 54.90961 8.33109 39 ft 15 kts 184°
2026-05-06 15:21 54.90870 8.33180 39 ft 14 kts 157°
2026-05-06 15:21 54.90781 8.33218 39 ft 13 kts 173°
2026-05-06 15:22 54.90697 8.33230 39 ft 12 kts 175°
2026-05-06 15:22 54.90620 8.33241 39 ft 11 kts 175°
2026-05-06 15:22 54.90521 8.33261 39 ft 19 kts 168°
2026-05-06 15:22 54.90405 8.33351 39 ft 18 kts 145°
2026-05-06 15:23 54.90322 8.33499 39 ft 17 kts 127°
2026-05-06 15:23 54.90272 8.33669 39 ft 15 kts 108°
2026-05-06 15:23 54.90252 8.33840 39 ft 14 kts 99°
2026-05-06 15:23 54.90235 8.34024 40 ft 19 kts 99°
2026-05-06 15:24 54.90251 8.34297 40 ft 25 kts 79°
2026-05-06 15:24 54.90286 8.34609 40 ft 27 kts 78°
2026-05-06 15:24 54.90316 8.34902 39 ft 25 kts 79°
2026-05-06 15:24 54.90362 8.35126 41 ft 15 kts 54°
2026-05-06 15:25 54.90432 8.35147 41 ft 11 kts 316°
2026-05-06 15:25 54.90449 8.35124 41 ft 0 kts 323°
2026-05-06 15:25 54.90551 8.35001 41 ft 55 kts 326°
2026-05-06 15:25 54.91061 8.34384 44 ft 120 kts 326°
2026-05-06 15:26 54.91818 8.33439 467 ft 136 kts 329°
2026-05-06 15:26 54.92606 8.32491 1223 ft 139 kts 328°
2026-05-06 15:26 54.93438 8.31465 1788 ft 158 kts 328°
2026-05-06 15:26 54.94392 8.30282 2202 ft 179 kts 328°
2026-05-06 15:27 54.95474 8.28947 2580 ft 202 kts 328°
2026-05-06 15:27 54.96649 8.27490 3173 ft 211 kts 327°
2026-05-06 15:27 54.97833 8.25923 3886 ft 217 kts 317°
2026-05-06 15:27 54.98484 8.23529 4577 ft 230 kts 276°
2026-05-06 15:28 54.98099 8.20838 5364 ft 233 kts 241°
2026-05-06 15:28 54.97228 8.18468 6248 ft 232 kts 234°
2026-05-06 15:28 54.96259 8.16225 7080 ft 232 kts 232°
2026-05-06 15:28 54.95124 8.14247 7882 ft 233 kts 211°
2026-05-06 15:29 54.93610 8.13308 8686 ft 234 kts 186°
2026-05-06 15:29 54.91969 8.13587 9261 ft 249 kts 160°
2026-05-06 15:29 54.90469 8.15249 9773 ft 263 kts 140°
2026-05-06 15:29 54.89048 8.17315 10462 ft 270 kts 141°
2026-05-06 15:30 54.87540 8.19479 10915 ft 290 kts 141°
2026-05-06 15:30 54.85955 8.21732 11628 ft 298 kts 142°
2026-05-06 15:30 54.84354 8.23997 12420 ft 304 kts 142°
2026-05-06 15:30 54.82697 8.26327 13218 ft 309 kts 144°
2026-05-06 15:31 54.80867 8.28414 13986 ft 313 kts 150°
2026-05-06 15:31 54.79013 8.30431 14749 ft 316 kts 150°
2026-05-06 15:31 54.77144 8.32462 15518 ft 318 kts 150°
2026-05-06 15:32 54.73360 8.36585 16785 ft 325 kts 150°
2026-05-06 15:32 54.71514 8.38859 16916 ft 330 kts 143°
2026-05-06 15:32 54.69783 8.41644 16944 ft 358 kts 135°
2026-05-06 15:32 54.68137 8.45167 16937 ft 386 kts 126°
2026-05-06 15:33 54.66761 8.49253 16937 ft 410 kts 117°
2026-05-06 15:33 54.65629 8.53915 16930 ft 431 kts 113°
2026-05-06 15:33 54.64491 8.58764 16928 ft 439 kts 113°
2026-05-06 15:33 54.63337 8.63671 16924 ft 441 kts 113°
2026-05-06 15:34 54.62013 8.68447 16919 ft 440 kts 122°
2026-05-06 15:34 54.60277 8.72766 16920 ft 438 kts 131°
2026-05-06 15:34 54.58200 8.76597 16920 ft 437 kts 136°
2026-05-06 15:34 54.56067 8.80319 16916 ft 436 kts 136°
2026-05-06 15:35 54.53940 8.84050 16915 ft 436 kts 136°
2026-05-06 15:35 54.51820 8.87772 16913 ft 435 kts 136°
2026-05-06 15:35 54.49696 8.91487 16915 ft 435 kts 136°
2026-05-06 15:35 54.47574 8.95185 16911 ft 434 kts 136°
2026-05-06 15:36 54.45452 8.98877 16915 ft 434 kts 136°
2026-05-06 15:36 54.43329 9.02565 16916 ft 434 kts 136°
2026-05-06 15:36 54.41210 9.06237 16919 ft 434 kts 136°
2026-05-06 15:36 54.39115 9.09987 16919 ft 435 kts 132°
2026-05-06 15:37 54.37339 9.14190 16926 ft 437 kts 123°
2026-05-06 15:37 54.35984 9.18859 16917 ft 439 kts 113°
2026-05-06 15:37 54.34998 9.23824 16912 ft 439 kts 110°
2026-05-06 15:37 54.33973 9.28694 16892 ft 424 kts 117°
2026-05-06 15:38 54.32388 9.32783 16476 ft 408 kts 134°
2026-05-06 15:38 54.30192 9.35809 15643 ft 405 kts 153°
2026-05-06 15:38 54.27572 9.37426 14906 ft 400 kts 171°
2026-05-06 15:38 54.24822 9.38126 14145 ft 400 kts 174°
2026-05-06 15:39 54.22063 9.38757 13380 ft 399 kts 174°
2026-05-06 15:39 54.19315 9.39371 12630 ft 397 kts 174°
2026-05-06 15:39 54.16590 9.39950 11938 ft 393 kts 174°
2026-05-06 15:39 54.13888 9.40493 11257 ft 388 kts 174°
2026-05-06 15:40 54.11216 9.41001 10577 ft 384 kts 174°
2026-05-06 15:40 54.08579 9.41481 10052 ft 376 kts 174°
2026-05-06 15:40 54.06038 9.41931 9887 ft 358 kts 174°
2026-05-06 15:40 54.03631 9.42354 9887 ft 338 kts 174°
2026-05-06 15:41 54.01358 9.42754 9894 ft 319 kts 174°
2026-05-06 15:41 53.99208 9.43135 9892 ft 303 kts 174°
2026-05-06 15:41 53.97145 9.43503 9890 ft 296 kts 174°
2026-05-06 15:41 53.95102 9.43866 9894 ft 295 kts 174°
2026-05-06 15:42 53.93061 9.44227 9888 ft 295 kts 174°
2026-05-06 15:42 53.91017 9.44587 9891 ft 295 kts 174°
2026-05-06 15:42 53.88975 9.44947 9886 ft 295 kts 174°
2026-05-06 15:42 53.86931 9.45307 9884 ft 295 kts 174°
2026-05-06 15:43 53.84883 9.45665 9889 ft 296 kts 174°
2026-05-06 15:43 53.82836 9.46020 9887 ft 296 kts 174°
2026-05-06 15:43 53.80790 9.46371 9889 ft 296 kts 174°
2026-05-06 15:43 53.78740 9.46721 9876 ft 295 kts 174°
2026-05-06 15:44 53.76703 9.47066 9526 ft 293 kts 174°
2026-05-06 15:44 53.74680 9.47394 9136 ft 292 kts 174°
2026-05-06 15:44 53.72661 9.47703 8755 ft 290 kts 174°
2026-05-06 15:44 53.70662 9.47991 8361 ft 288 kts 174°
2026-05-06 15:45 53.68671 9.48256 7973 ft 286 kts 174°
2026-05-06 15:45 53.66695 9.48503 7575 ft 284 kts 174°
2026-05-06 15:45 53.64732 9.48731 7163 ft 282 kts 174°
2026-05-06 15:45 53.62806 9.48945 6904 ft 280 kts 174°
2026-05-06 15:46 53.60866 9.49154 6629 ft 278 kts 174°
2026-05-06 15:46 53.58941 9.49354 6209 ft 277 kts 174°
2026-05-06 15:46 53.57027 9.49544 5885 ft 271 kts 174°
2026-05-06 15:46 53.55209 9.49711 5735 ft 251 kts 174°
2026-05-06 15:47 53.53495 9.49854 5384 ft 244 kts 174°
2026-05-06 15:47 53.51810 9.49989 5081 ft 241 kts 174°
2026-05-06 15:47 53.50143 9.50114 5002 ft 239 kts 174°
2026-05-06 15:47 53.48477 9.50260 5003 ft 240 kts 170°
2026-05-06 15:48 53.46927 9.51148 5009 ft 235 kts 148°
2026-05-06 15:48 53.45523 9.52539 4985 ft 234 kts 144°
2026-05-06 15:48 53.44148 9.53979 4705 ft 232 kts 144°
2026-05-06 15:48 53.42820 9.55490 4407 ft 227 kts 132°
2026-05-06 15:49 53.42100 9.57709 4125 ft 215 kts 92°
2026-05-06 15:49 53.42492 9.60022 4004 ft 212 kts 49°
2026-05-06 15:49 53.43753 9.61288 4006 ft 218 kts 20°
2026-05-06 15:49 53.45127 9.62343 3997 ft 217 kts 44°
2026-05-06 15:50 53.45988 9.64387 3998 ft 216 kts 58°
2026-05-06 15:50 53.46888 9.66399 4006 ft 216 kts 51°
2026-05-06 15:50 53.47856 9.68324 4010 ft 216 kts 51°
2026-05-06 15:50 53.48822 9.70244 3996 ft 215 kts 51°
2026-05-06 15:51 53.49782 9.72161 3829 ft 209 kts 51°
2026-05-06 15:51 53.50675 9.73947 3588 ft 191 kts 51°
2026-05-06 15:51 53.51497 9.75592 3376 ft 176 kts 51°
2026-05-06 15:51 53.52269 9.77141 3124 ft 171 kts 51°
2026-05-06 15:52 53.53022 9.78650 2886 ft 167 kts 51°
2026-05-06 15:52 53.53762 9.80135 2650 ft 165 kts 51°
2026-05-06 15:52 53.54497 9.81612 2430 ft 164 kts 50°
2026-05-06 15:52 53.55229 9.83083 2207 ft 163 kts 51°
2026-05-06 15:53 53.55960 9.84552 1979 ft 164 kts 50°
2026-05-06 15:53 53.56685 9.86010 1761 ft 166 kts 50°
2026-05-06 15:53 53.57417 9.87482 1540 ft 163 kts 51°
2026-05-06 15:53 53.58145 9.88949 1310 ft 163 kts 51°
2026-05-06 15:54 53.58868 9.90405 1077 ft 164 kts 50°
2026-05-06 15:54 53.59568 9.91816 839 ft 146 kts 49°
2026-05-06 15:54 53.60183 9.93057 640 ft 134 kts 51°
2026-05-06 15:54 53.60777 9.94256 463 ft 134 kts 51°
2026-05-06 15:55 53.61368 9.95449 289 ft 132 kts 50°
2026-05-06 15:55 53.61953 9.96662 125 ft 132 kts 49°
2026-05-06 15:55 53.62518 9.97758 47 ft 107 kts 51°
2026-05-06 15:55 53.62875 9.98494 50 ft 60 kts 50°
2026-05-06 15:56 53.63108 9.98967 51 ft 47 kts 50°
2026-05-06 15:56 53.63293 9.99368 49 ft 35 kts 63°
2026-05-06 15:56 53.63287 9.99629 50 ft 15 kts 112°
2026-05-06 15:56 53.63279 9.99661 48 ft 0 kts 110°
2026-05-06 15:57 53.63279 9.99663 48 ft 2 kts 109°
2026-05-06 15:57 53.63281 9.99746 50 ft 8 kts 74°
2026-05-06 15:57 53.63334 9.99871 50 ft 22 kts 50°
2026-05-06 15:58 53.63420 10.00046 51 ft 16 kts 51°
2026-05-06 15:58 53.63404 10.00190 50 ft 13 kts 128°
2026-05-06 15:58 53.63346 10.00219 51 ft 4 kts 186°
2026-05-06 15:58 53.63294 10.00258 49 ft 11 kts 117°
2026-05-06 15:59 53.63293 10.00340 51 ft 3 kts 85°
2026-05-06 15:59 53.63294 10.00357 51 ft 0 kts 85°